TimePST,TemperatureF,Dew PointF,Humidity,Sea Level PressureIn,VisibilityMPH,Wind Direction,Wind SpeedMPH,Gust SpeedMPH,PrecipitationIn,Events,Conditions,WindDirDegrees,DateUTC
12:15 AM,42.8,41.0,93,30.16,4.0,SSW,5.8,-,0.01,,Overcast,200,2012-12-07 08:15:00
12:35 AM,42.8,41.0,93,30.15,5.0,South,4.6,-,0.01,,Mostly Cloudy,180,2012-12-07 08:35:00
12:55 AM,42.8,41.0,93,30.15,6.0,South,8.1,-,0.02,,Overcast,190,2012-12-07 08:55:00
1:15 AM,42.8,41.0,93,30.15,7.0,SSW,4.6,-,N/A,,Mostly Cloudy,200,2012-12-07 09:15:00
1:35 AM,42.8,41.0,93,30.14,9.0,South,6.9,-,N/A,,Overcast,190,2012-12-07 09:35:00
1:55 AM,42.8,41.0,93,30.13,9.0,South,8.1,-,N/A,,Overcast,170,2012-12-07 09:55:00
2:15 AM,44.6,41.0,87,30.14,10.0,South,5.8,-,N/A,,Overcast,190,2012-12-07 10:15:00
2:35 AM,44.6,41.0,87,30.14,4.0,South,9.2,-,0.01,Rain,Light Rain,180,2012-12-07 10:35:00
2:55 AM,44.6,42.8,93,30.13,6.0,South,10.4,-,0.02,Rain,Light Rain,180,2012-12-07 10:55:00
3:15 AM,44.6,41.0,87,30.12,9.0,South,9.2,-,N/A,Rain,Light Rain,180,2012-12-07 11:15:00
3:35 AM,44.6,41.0,87,30.11,6.0,South,5.8,-,N/A,,Overcast,170,2012-12-07 11:35:00
3:55 AM,44.6,41.0,87,30.11,10.0,Calm,Calm,-,N/A,,Overcast,0,2012-12-07 11:55:00
4:15 AM,44.6,41.0,87,30.11,10.0,SSW,5.8,-,N/A,Rain,Light Rain,200,2012-12-07 12:15:00
4:35 AM,44.6,41.0,87,30.10,10.0,SSW,5.8,-,N/A,,Overcast,200,2012-12-07 12:35:00
4:55 AM,44.6,41.0,87,30.09,10.0,SSE,9.2,-,N/A,,Overcast,160,2012-12-07 12:55:00
5:15 AM,44.6,41.0,87,30.09,10.0,South,10.4,-,N/A,,Overcast,170,2012-12-07 13:15:00
5:35 AM,44.6,41.0,87,30.09,9.0,South,9.2,-,N/A,,Overcast,170,2012-12-07 13:35:00
5:55 AM,44.6,42.8,93,30.08,10.0,South,6.9,-,N/A,,Mostly Cloudy,190,2012-12-07 13:55:00
6:15 AM,44.6,42.8,93,30.08,10.0,South,8.1,-,N/A,,Overcast,190,2012-12-07 14:15:00
6:35 AM,44.6,42.8,93,30.08,4.0,South,8.1,-,0.01,Rain,Light Rain,180,2012-12-07 14:35:00
6:55 AM,44.6,42.8,93,30.07,10.0,SSW,6.9,-,0.01,Rain,Light Rain,200,2012-12-07 14:55:00
7:15 AM,44.6,42.8,93,30.07,8.0,South,9.2,-,N/A,Rain,Light Rain,190,2012-12-07 15:15:00
7:35 AM,44.6,42.8,93,30.07,9.0,SSW,9.2,16.1,N/A,,Overcast,210,2012-12-07 15:35:00
7:55 AM,44.6,41.0,87,30.06,10.0,SSW,9.2,-,N/A,,Overcast,200,2012-12-07 15:55:00
8:15 AM,44.6,42.8,93,30.06,10.0,South,5.8,-,N/A,,Overcast,190,2012-12-07 16:15:00
8:35 AM,44.6,42.8,93,30.06,4.0,South,8.1,-,N/A,,Overcast,190,2012-12-07 16:35:00
8:55 AM,44.6,42.8,93,30.06,4.0,South,8.1,-,0.02,Rain,Light Rain,180,2012-12-07 16:55:00
9:15 AM,44.6,42.8,93,30.06,8.0,SW,3.5,-,N/A,,Overcast,230,2012-12-07 17:15:00
9:35 AM,46.4,42.8,87,30.06,4.0,South,4.6,-,N/A,,Overcast,180,2012-12-07 17:35:00
10:15 AM,46.4,44.6,93,30.06,6.0,West,3.5,-,N/A,Rain,Light Rain,260,2012-12-07 18:15:00
10:35 AM,46.4,44.6,93,30.07,4.0,North,3.5,-,0.01,Rain,Light Rain,350,2012-12-07 18:35:00
11:15 AM,46.4,42.8,87,30.06,5.0,WSW,9.2,-,N/A,,Mostly Cloudy,250,2012-12-07 19:15:00
11:35 AM,46.4,42.8,87,30.06,10.0,WSW,9.2,-,N/A,,Scattered Clouds,240,2012-12-07 19:35:00
11:55 AM,46.4,42.8,87,30.06,8.0,West,4.6,-,N/A,,Mostly Cloudy,260,2012-12-07 19:55:00
12:15 PM,46.4,42.8,87,30.06,8.0,WNW,5.8,-,N/A,,Mostly Cloudy,290,2012-12-07 20:15:00
12:35 PM,46.4,41.0,81,30.06,8.0,West,5.8,-,N/A,,Scattered Clouds,280,2012-12-07 20:35:00
12:55 PM,46.4,41.0,81,30.07,7.0,WNW,9.2,16.1,N/A,,Scattered Clouds,300,2012-12-07 20:55:00
1:15 PM,44.6,41.0,87,30.08,8.0,WNW,8.1,18.4,N/A,,Overcast,290,2012-12-07 21:15:00
1:35 PM,46.4,39.2,76,30.09,10.0,NW,5.8,-,N/A,,Mostly Cloudy,310,2012-12-07 21:35:00
1:55 PM,46.4,37.4,71,30.09,10.0,NW,12.7,21.9,N/A,,Scattered Clouds,310,2012-12-07 21:55:00
2:15 PM,46.4,35.6,66,30.10,10.0,WNW,9.2,18.4,N/A,,Scattered Clouds,290,2012-12-07 22:15:00
2:35 PM,46.4,35.6,66,30.10,10.0,WNW,8.1,-,N/A,,Partly Cloudy,300,2012-12-07 22:35:00
2:55 PM,44.6,35.6,71,30.11,10.0,WNW,5.8,-,N/A,,Clear,300,2012-12-07 22:55:00
3:15 PM,44.6,37.4,76,30.12,10.0,WNW,5.8,-,N/A,,Clear,300,2012-12-07 23:15:00
3:35 PM,44.6,35.6,71,30.12,10.0,WNW,8.1,-,N/A,,Clear,290,2012-12-07 23:35:00
3:55 PM,44.6,35.6,71,30.12,10.0,WNW,6.9,-,N/A,,Partly Cloudy,300,2012-12-07 23:55:00
4:15 PM,44.6,35.6,71,30.13,10.0,West,5.8,-,N/A,,Clear,270,2012-12-08 00:15:00
4:35 PM,44.6,35.6,71,30.15,5.0,WNW,10.4,-,0.01,,Haze,300,2012-12-08 00:35:00
4:55 PM,41.0,35.6,81,30.14,10.0,West,4.6,-,0.01,,Overcast,270,2012-12-08 00:55:00
5:15 PM,41.0,37.4,87,30.15,9.0,West,4.6,-,0.01,,Mostly Cloudy,280,2012-12-08 01:15:00
5:35 PM,41.0,37.4,87,30.15,9.0,West,4.6,-,0.01,,Mostly Cloudy,280,2012-12-08 01:35:00
5:55 PM,41.0,35.6,81,30.16,7.0,WSW,4.6,-,0.01,,Mostly Cloudy,250,2012-12-08 01:55:00
6:15 PM,41.0,35.6,81,30.16,10.0,West,5.8,-,N/A,,Scattered Clouds,270,2012-12-08 02:15:00
6:35 PM,41.0,35.6,81,30.17,10.0,WSW,3.5,-,N/A,,Mostly Cloudy,250,2012-12-08 02:35:00
6:55 PM,41.0,35.6,81,30.16,10.0,WSW,3.5,-,N/A,,Scattered Clouds,250,2012-12-08 02:55:00
7:15 PM,41.0,35.6,81,30.17,10.0,West,4.6,-,N/A,,Mostly Cloudy,280,2012-12-08 03:15:00
7:35 PM,41.0,35.6,81,30.18,9.0,WSW,4.6,-,N/A,,Overcast,250,2012-12-08 03:35:00
7:55 PM,41.0,35.6,81,30.18,10.0,West,10.4,-,N/A,,Overcast,280,2012-12-08 03:55:00
8:15 PM,41.0,35.6,81,30.19,10.0,West,4.6,-,N/A,,Mostly Cloudy,270,2012-12-08 04:15:00
8:35 PM,41.0,35.6,81,30.19,10.0,Calm,Calm,-,N/A,,Scattered Clouds,0,2012-12-08 04:35:00
8:55 PM,41.0,35.6,81,30.19,10.0,Calm,Calm,-,N/A,,Scattered Clouds,0,2012-12-08 04:55:00
9:15 PM,41.0,35.6,81,30.20,9.0,SW,3.5,-,N/A,,Scattered Clouds,230,2012-12-08 05:15:00
9:35 PM,41.0,35.6,81,30.20,6.0,SW,4.6,-,N/A,,Haze,220,2012-12-08 05:35:00
9:55 PM,41.0,37.4,87,30.21,10.0,SSW,4.6,-,N/A,,Mostly Cloudy,200,2012-12-08 05:55:00
10:15 PM,41.0,35.6,81,30.21,5.0,WSW,5.8,-,N/A,Rain,Light Rain,250,2012-12-08 06:15:00
10:35 PM,41.0,37.4,87,30.20,10.0,SW,4.6,-,N/A,,Mostly Cloudy,230,2012-12-08 06:35:00
10:55 PM,39.2,37.4,93,30.21,7.0,West,3.5,-,N/A,Rain,Light Rain,260,2012-12-08 06:55:00
11:15 PM,39.2,37.4,93,30.21,10.0,South,4.6,-,N/A,,Overcast,180,2012-12-08 07:15:00
11:35 PM,39.2,37.4,93,30.22,7.0,SSW,4.6,-,N/A,,Overcast,200,2012-12-08 07:35:00
11:55 PM,39.2,37.4,93,30.22,7.0,South,5.8,-,N/A,,Overcast,190,2012-12-08 07:55:00